Simultaneous Nadir Overpasses (SNOs) Predictions

Prediction of SNOs between AQUA and METOP-A Satellite Orbit:

Table of predicted SNOs for the next 14.0 days since TLE Epoch: 9/22/2017
Index Date (AQUA) Time (AQUA) Lat,Lon (AQUA) SZA (AQUA ) Date (METOP-A) Time (METOP-A) Lat,Lon (METOP-A) SZA (METOP-A ) Distance(km) Time Diff (sec)
1 09/23/2017 23:38:53 73.96, 179.15 74.37 09/23/2017 23:38:26 73.97, 179.13 74.37 0.79 27
2 09/24/2017 00:28:20 -74.06, -13.43 105.52 09/24/2017 00:29:06 -74.04, -13.35 105.54 3.06 46
3 09/26/2017 19:13:10 73.99,-114.49 75.49 09/26/2017 19:12:45 74.00,-114.38 75.50 3.52 25
4 09/26/2017 20:02:36 -74.04, 53.06 104.46 09/26/2017 20:03:26 -74.03, 53.02 104.46 1.28 50
5 09/29/2017 13:57:45 -73.35, 145.70 104.10 09/29/2017 13:56:38 -73.29, 143.06 104.10 84.70 67
6 09/29/2017 14:47:25 73.98, -48.03 76.57 09/29/2017 14:47:04 73.98, -48.01 76.57 0.68 21
7 09/29/2017 15:36:52 -74.07, 119.41 103.33 09/29/2017 15:37:44 -74.06, 119.51 103.34 3.21 52
8 10/02/2017 09:32:03 -73.44,-148.06 102.92 10/02/2017 09:30:55 -73.43,-150.24 102.89 69.16 68
9 10/02/2017 10:21:41 73.98, 18.42 77.65 10/02/2017 10:21:24 73.97, 18.36 77.64 2.29 17
10 10/02/2017 11:11:08 -74.06,-174.13 102.25 10/02/2017 11:12:04 -74.05,-174.12 102.27 1.76 56
11 10/05/2017 05:06:22 -73.60, -81.95 101.68 10/05/2017 05:05:12 -73.55, -83.54 101.69 50.13 70
12 10/05/2017 05:55:57 73.98, 84.85 78.74 10/05/2017 05:55:43 73.99, 84.83 78.75 1.69 14
13 10/05/2017 06:45:24 -74.06,-107.69 101.17 10/05/2017 06:46:23 -74.08,-107.64 101.16 2.34 59




NCC Satellite Simultaneous Nadir Overpasses (SNOs) Prediction Service
